Location: Ravensburg
(47.7866°N, 9.6124°E)
Time: 02:30:40
(UTC+02:00)

Gurwin Techsat 1B - Pass Details

Date: 22 March 2026
Orbit: 809 x 812 km, 99.0° (Epoch: 14 April)

Event Time Altitude Azimuth Distance (km) Brightness Sun altitude
Rises 03:59:41 0° 33° (NNE) 3,339 12.8 -23.5°
Reaches altitude 10° 04:03:32 10° 61° (ENE) 2,401 12.2 -22.9°
Maximum altitude 04:05:50 13° 87° (E) 2,206 11.7 -22.6°
Drops below altitude 10° 04:08:07 10° 113° (ESE) 2,393 11.5 -22.2°
Sets 04:11:56 0° 141° (SE) 3,317 11.9 -21.7°
